[TLELIST] Archives

 

[TLELIST] Current TLEs

August 4th 2025 PDT

0 HST 1 20580U 90037B 25215.93273082 .00005501 00000-0 20116-3 0 9997 2 20580 28.4688 81.1723 0001692 258.8868 101.1537 15.25770533739980 0 ISS (ZARYA) 1 25544U 98067A 25216.09482028 .00008126 00000-0 14851-3 0 9998 2 25544 51.6350 69.6212 0001682 150.1438 209.9647 15.50325727522594 0 CXO 1 25867U 99040B 25217.04070135 .00000801 00000-0 00000-0 0 9996 2 25867 50.4588 127.6292 8344700 310.0359 0.7049 0.37799666 16129 ...Continue Reading

[TLELIST] Current TLEs

August 3rd 2025 PDT

0 HST 1 20580U 90037B 25214.03585465 .00006073 00000-0 22305-3 0 9995 2 20580 28.4682 94.0393 0001709 235.5856 124.4577 15.25748314739690 0 ISS (ZARYA) 1 25544U 98067A 25215.46272211 .00014619 00000-0 26065-3 0 9993 2 25544 51.6349 72.7526 0001790 135.4885 294.4671 15.50326680522491 0 CXO 1 25867U 99040B 25217.04070135 .00000801 00000-0 00000-0 0 9996 2 25867 50.4588 127.6292 8344700 310.0359 0.7049 0.37799666 16129 ...Continue Reading

[TLELIST] Current TLEs

August 2nd 2025 PDT

0 HST 1 20580U 90037B 25214.03585465 .00006073 00000-0 22305-3 0 9995 2 20580 28.4682 94.0393 0001709 235.5856 124.4577 15.25748314739959 0 ISS (ZARYA) 1 25544U 98067A 25214.49566479 .00011663 00000-0 20985-3 0 9998 2 25544 51.6359 77.5427 0002034 138.8478 290.2759 15.50294044522345 0 CXO 1 25867U 99040B 25217.04052865 .00000801 00000-0 00000+0 0 9995 2 25867 50.4588 127.6292 8344692 310.0360 0.6804 0.37799653 27284 ...Continue Reading

[TLELIST] Current TLEs

August 1st 2025 PDT

0 HST 1 20580U 90037B 25212.92387956 .00006807 00000-0 25106-3 0 9993 2 20580 28.4677 101.5829 0001721 222.1842 137.8621 15.25735314739529 0 ISS (ZARYA) 1 25544U 98067A 25213.12960715 .00012083 00000-0 21736-3 0 9990 2 25544 51.6345 84.3189 0001828 139.3559 220.7567 15.50261247522138 0 CXO 1 25867U 99040B 25214.39624013 .00000672 00000-0 00000-0 0 9997 2 25867 50.4225 127.7080 8348166 310.0398 0.6414 0.37803800 16116 ...Continue Reading

[TLELIST] Current TLEs

July 31st 2025 PDT

0 HST 1 20580U 90037B 25211.87730514 .00006949 00000-0 25657-3 0 9996 2 20580 28.4677 108.6806 0001806 209.3207 150.7286 15.25721594739366 0 ISS (ZARYA) 1 25544U 98067A 25212.16266026 .00011089 00000-0 20032-3 0 9990 2 25544 51.6344 89.1118 0001873 135.4820 224.6320 15.50237195521987 0 CXO 1 25867U 99040B 25214.39624013 .00000672 00000-0 00000-0 0 9997 2 25867 50.4225 127.7080 8348166 310.0398 0.6414 0.37803800 16116 ...Continue Reading

[TLELIST] Current TLEs

July 31st 2025 PDT

0 HST 1 20580U 90037B 25211.87730514 .00006949 00000-0 25657-3 0 9996 2 20580 28.4677 108.6806 0001806 209.3207 150.7286 15.25721594739366 0 ISS (ZARYA) 1 25544U 98067A 25212.16266026 .00011089 00000-0 20032-3 0 9990 2 25544 51.6344 89.1118 0001873 135.4820 224.6320 15.50237195521987 0 CXO 1 25867U 99040B 25214.39624013 .00000672 00000-0 00000-0 0 9997 2 25867 50.4225 127.7080 8348166 310.0398 0.6414 0.37803800 16116 ...Continue Reading

[TLELIST] Current TLEs

July 30th 2025 PDT

0 HST 1 20580U 90037B 25210.83072120 .00006326 00000-0 23298-3 0 9991 2 20580 28.4678 115.7789 0001856 197.4133 162.6398 15.25707255739203 0 ISS (ZARYA) 1 25544U 98067A 25211.45188657 .00012646 00000-0 22742-3 0 9994 2 25544 51.6362 92.6301 0002121 130.3479 220.4446 15.50222022521864 0 CXO 1 25867U 99040B 25211.75209273 .00000581 00000-0 00000-0 0 9990 2 25867 50.4040 127.7709 8352943 310.0518 0.6417 0.37806133 16105 ...Continue Reading

[TLELIST] Current TLEs

July 29th 2025 PDT

0 HST 1 20580U 90037B 25210.04577718 .00006184 00000-0 22763-3 0 9995 2 20580 28.4679 121.1030 0001888 188.6554 171.4008 15.25697515739346 0 ISS (ZARYA) 1 25544U 98067A 25210.16425717 .00013032 00000-0 23438-3 0 9995 2 25544 51.6345 99.0171 0001921 128.7802 231.3359 15.50188201521672 0 CXO 1 25867U 99040B 25211.75209273 .00000581 00000-0 00000-0 0 9990 2 25867 50.4040 127.7709 8352943 310.0518 0.6417 0.37806133 16105 ...Continue Reading

[TLELIST] Current TLEs

July 28th 2025 PDT

0 HST 1 20580U 90037B 25208.93376480 .00006389 00000-0 23552-3 0 9997 2 20580 28.4677 128.6452 0001930 176.4393 183.6216 15.25684612738910 0 ISS (ZARYA) 1 25544U 98067A 25209.13279725 .00012211 00000-0 22036-3 0 9997 2 25544 51.6347 104.1294 0001992 125.2997 234.8178 15.50161265521514 0 CXO 1 25867U 99040B 25211.75209273 .00000581 00000-0 00000-0 0 9990 2 25867 50.4040 127.7709 8352943 310.0518 0.6417 0.37806133 16105 ...Continue Reading

[TLELIST] Current TLEs

July 27th 2025 PDT

0 HST 1 20580U 90037B 25207.88715621 .00006282 00000-0 23154-3 0 9994 2 20580 28.4675 135.7434 0001980 164.8126 195.2528 15.25671662738755 0 ISS (ZARYA) 1 25544U 98067A 25208.16578800 .00012255 00000-0 22132-3 0 9990 2 25544 51.6347 108.9215 0001985 120.4338 239.6847 15.50135736521360 0 CXO 1 25867U 99040B 25209.10722987 .00000562 00000-0 00000+0 0 9996 2 25867 50.3751 127.8524 8359077 310.0488 0.5780 0.37806077 27257 ...Continue Reading
  • This mailing list is a public mailing list - anyone may join or leave, at any time.
  • This mailing list is announce-only.

International Space Station (ISS) / Hubble Space Telescope (HST) / Chandra X-Ray Observatory Orbital Data via EMAIL

Privacy Policy:

Private list